Location: Unspecified
(0.0000°N, 0.0000°E)
Time: 18:25:14
(UTC+02:00)

GPS 2-15 Rocket1 - Visible Passes

Search period start: 02 August 2015 00:00
Search period end: 12 August 2015 00:00
Orbit: 626 x 678 km, 19.8° (Epoch: 02 August)

Date Brightness Start Highest point End Pass type
(mag) Time Alt. Az. Time Alt. Az. Time Alt. Az.
03 Aug 4.9 21:09:32 10° SSW 21:12:07 15° SSE 21:12:37 15° SSE visible
04 Aug 4.6 21:35:21 10° SW 21:38:07 23° S 21:38:07 23° S visible
05 Aug 4.8 22:01:37 10° SW 22:03:41 24° SW 22:03:41 24° SW visible
06 Aug 4.2 20:44:39 10° SW 20:48:37 27° SSE 20:51:35 15° ESE visible
06 Aug 5.6 22:28:15 10° WSW 22:29:18 17° WSW 22:29:18 17° WSW visible
07 Aug 5.7 07:14:40 10° NNW 07:17:23 15° NNE 07:20:11 10° NE visible
07 Aug 3.3 21:10:59 10° SW 21:15:31 50° SSE 21:17:14 33° ESE visible
08 Aug 5.9 05:59:13 10° N 05:59:37 10° NNE 06:00:08 10° NNE visible
08 Aug 5.3 07:40:30 10° NW 07:44:26 24° NNE 07:48:27 10° ENE visible
08 Aug 3.0 21:37:40 10° WSW 21:42:21 82° NNW 21:42:55 67° NE visible
09 Aug 5.7 06:23:53 10° NNW 06:26:47 16° NNE 06:29:48 10° NE visible
09 Aug 4.3 22:04:48 10° W 22:08:36 39° NW 22:08:36 39° NW visible
10 Aug 5.1 06:49:47 10° NW 06:53:49 26° NNE 06:57:56 10° ENE visible
10 Aug 3.3 20:47:05 10° WSW 20:51:47 73° NNW 20:56:25 10° ENE visible
10 Aug 5.6 22:32:26 10° WNW 22:34:16 18° NW 22:34:16 18° NW visible
11 Aug 5.7 05:37:11 16° NNE 05:37:11 16° NNE 05:39:21 10° ENE visible
11 Aug 4.1 07:16:04 10° NW 07:20:44 46° NNE 07:25:29 10° E visible
11 Aug 4.3 21:14:18 10° W 21:18:38 37° NNW 21:22:11 14° NE visible
